Theta_e
302 301 302 302 301 302 302 303 300 302 302 306 310 314 318 321 320 323 327 328 329 329 329 328 326 325 324 323 322 321 318 317 318 318 318 317 317 317 316 316 316 315 313 313
296 298 297 295 297 299 300 302 303 303 303 310 313 317 319 321 321 321 326 327 328 329 329 328 327 325 324 322 321 321 318 317 318 318 317 317 316 316 317 316 316 315 314 313
293 296 297 294 298 300 301 303 303 300 307 315 315 316 319 321 321 320 325 325 328 328 329 328 327 327 324 323 322 320 319 317 318 318 316 316 316 316 315 316 317 315 314 314
293 296 287 298 304 305 303 305 307 308 311 313 315 317 319 322 322 322 323 327 326 326 329 330 329 327 325 323 321 320 319 317 318 317 316 317 316 316 316 316 316 316 315 315
291 292 296 299 303 302 302 303 313 311 313 314 316 318 317 323 322 324 324 329 328 327 329 330 328 327 325 322 321 321 319 318 317 317 317 317 316 316 317 316 315 315 315 315
295 291 289 303 309 313 312 300 309 311 312 313 315 309 314 321 323 325 325 329 326 329 329 328 328 327 325 322 321 319 319 318 318 318 318 317 317 317 317 316 314 313 314 317
294 294 296 303 308 311 296 300 309 308 308 309 310 314 320 323 323 326 324 329 330 328 326 328 327 328 324 322 320 321 321 319 319 319 319 318 318 317 316 315 313 315 315 318
296 293 289 306 306 301 304 306 306 305 306 306 309 314 319 321 322 324 321 324 324 325 325 327 326 325 324 322 323 322 321 319 319 319 317 316 317 316 314 313 314 315 316 316
298 298 310 310 311 308 305 303 301 302 305 308 307 308 315 319 322 323 318 320 323 323 324 324 325 326 323 323 323 320 320 319 318 318 316 317 314 313 311 315 312 312 311 313
300 303 307 308 309 312 307 305 305 304 305 307 305 307 312 319 321 323 318 318 320 322 322 319 322 324 325 322 321 320 318 317 318 316 316 315 312 312 312 311 311 311 311 312
299 303 304 305 307 309 304 304 303 303 304 305 306 308 311 316 320 321 317 316 319 321 321 320 322 323 323 322 321 319 319 317 317 315 314 312 312 312 313 317 308 311 313 313
290 298 298 299 302 302 300 301 302 302 303 305 306 310 312 316 320 319 317 316 316 321 321 320 320 321 321 322 321 320 318 316 314 312 311 310 312 311 292 293 293 293 295 300
297 300 300 301 302 302 301 301 303 303 304 303 307 313 312 318 319 316 318 318 318 317 319 319 319 318 321 322 322 320 317 316 312 309 309 311 312 313 308 299 293 292 292 292
299 299 297 299 298 301 302 302 303 305 305 306 310 310 318 317 319 316 316 318 319 319 318 318 318 318 321 322 321 319 317 304 311 311 311 312 312 312 311 310 308 304 294 297
298 300 299 300 300 300 302 303 302 303 304 306 309 310 318 316 317 317 317 317 317 317 316 317 317 318 321 321 319 316 313 312 311 312 312 310 312 312 312 311 309 306 303 298
298 298 298 298 298 300 301 302 301 302 303 306 306 308 318 318 317 316 315 316 314 314 316 318 318 319 320 319 317 315 313 304 306 312 311 311 311 311 310 310 309 308 308 306
295 295 297 297 298 299 300 304 303 303 304 304 305 310 318 316 313 313 313 316 317 317 318 318 317 317 318 317 316 314 312 312 304 311 310 311 311 310 310 309 308 307 304 299
301 301 301 302 304 304 305 308 308 305 303 304 307 314 314 312 308 310 312 314 314 317 317 317 317 317 317 316 315 313 312 311 311 311 311 311 311 311 310 309 307 305 303 299
304 302 304 305 304 304 308 308 309 306 306 306 314 313 312 308 307 309 311 311 313 311 314 316 304 312 315 311 311 312 312 311 311 311 311 304 309 310 309 307 305 304 303 303
302 302 301 302 306 307 308 307 307 306 308 315 312 307 305 305 306 307 309 309 314 313 315 311 314 315 314 310 302 312 312 312 311 310 310 310 309 308 306 300 303 302 303 303
300 299 300 304 304 308 311 307 306 307 311 311 307 305 305 306 308 309 308 307 313 312 312 306 313 312 312 309 309 311 312 312 311 310 309 309 307 307 305 303 302 302 302 302
299 298 299 304 305 307 312 312 308 314 313 310 310 307 307 307 309 309 309 307 310 300 309 312 311 303 308 297 312 312 312 311 310 310 309 308 307 305 303 303 302 302 302 301
299 300 303 304 305 308 313 313 310 316 311 312 310 311 310 311 310 307 305 309 309 304 311 312 294 291 291 310 312 311 311 309 309 308 308 306 304 303 303 302 302 302 300 299
301 304 306 307 308 311 311 313 314 314 311 310 312 314 313 310 309 310 308 301 297 300 309 302 298 290 289 312 311 310 309 309 308 307 305 296 303 303 302 302 301 300 298 296
302 304 306 307 312 312 315 317 315 312 311 311 313 313 313 312 309 310 310 310 294 304 307 287 289 291 310 311 310 309 308 307 306 304 303 303 303 302 302 301 298 297 295 294
303 307 310 313 314 315 314 311 308 308 309 310 310 310 311 311 310 311 311 306 310 302 308 307 310 310 311 310 308 307 305 303 303 303 302 303 302 301 299 298 296 294 294 294
310 305 316 315 315 312 310 309 308 307 309 310 308 310 310 311 309 308 304 310 309 310 310 310 309 306 308 308 306 306 305 304 298 303 303 302 300 299 297 295 295 295 294 294
Wind_Speed
11 14 15 17 18 15 17 17 18 17 20 18 21 21 19 20 17 10 15 18 18 20 21 21 21 20 19 19 18 17 16 15 13 12 11 11 9 8 7 6 6 6 5 5
15 16 18 21 20 20 21 21 23 21 21 21 19 17 20 20 20 13 14 18 20 20 21 22 23 22 20 19 19 17 16 15 14 12 12 11 10 8 6 7 6 6 6 6
12 6 9 14 19 20 18 18 17 19 14 15 17 18 20 19 19 18 11 12 16 19 21 21 22 21 21 19 18 18 16 15 14 13 13 11 10 9 7 6 6 5 6 7
9 9 13 4 3 8 10 11 13 11 12 12 17 18 20 12 16 17 16 11 12 16 13 15 20 21 20 19 19 18 16 15 14 14 12 11 10 8 6 5 6 6 5 7
7 10 14 18 14 12 8 8 10 10 11 15 18 19 8 12 20 18 17 12 13 15 16 16 18 20 21 21 19 18 16 15 15 13 12 11 10 8 7 5 5 5 5 7
8 12 8 9 7 4 3 8 7 10 12 15 18 13 11 25 21 20 20 9 11 15 18 19 20 21 21 21 20 18 17 15 14 13 11 11 9 6 5 5 5 6 5 7
14 12 9 8 4 5 11 4 8 11 12 14 13 14 19 19 18 16 16 10 7 12 15 18 21 20 21 21 19 18 16 15 13 12 11 10 8 6 6 6 4 5 7 8
12 17 16 3 7 9 7 5 8 11 13 15 16 19 19 18 16 16 13 8 7 12 14 16 19 19 19 19 18 18 17 15 13 12 10 9 9 7 7 6 6 6 8 9
9 5 9 7 7 7 5 7 10 13 14 15 18 18 18 19 15 14 8 9 8 11 13 15 16 16 19 19 19 18 17 15 14 13 10 9 9 7 7 7 6 7 6 3
10 12 12 2 6 5 4 9 12 14 15 14 17 18 18 17 14 12 6 10 7 9 12 14 15 16 16 19 19 19 17 15 13 12 10 9 8 7 6 6 5 5 4 3
18 17 15 17 12 4 13 14 16 17 16 16 16 19 17 15 15 11 6 7 7 9 11 14 15 16 18 19 20 18 16 14 13 10 10 9 7 1 3 6 7 7 4 3
17 14 13 14 17 18 16 17 18 19 19 17 16 18 16 12 12 9 8 7 6 10 12 14 16 16 18 20 19 17 15 12 11 10 9 9 8 6 12 9 7 5 3 7
21 19 22 21 17 18 20 20 16 18 18 20 17 15 13 12 9 10 9 11 12 11 14 15 16 18 18 19 18 17 14 13 10 9 9 9 8 8 7 6 9 10 9 11
17 18 22 21 18 18 17 19 18 19 18 17 17 15 13 7 11 10 12 11 12 14 15 17 17 19 18 18 17 15 14 11 11 9 9 8 7 6 5 8 8 8 6 6
23 23 24 22 22 22 20 17 19 18 17 16 14 14 9 8 13 9 8 10 13 15 17 17 19 19 18 17 16 16 13 11 10 9 8 6 6 4 4 5 6 8 8 8
20 21 21 21 20 20 20 19 21 18 17 14 14 15 10 7 9 8 10 13 16 16 16 19 18 18 17 17 16 14 12 11 8 8 8 8 6 5 6 5 5 4 3 3
23 22 20 21 20 21 21 17 19 17 17 15 15 14 7 9 8 11 11 15 17 15 14 16 18 17 17 17 16 12 10 10 5 8 9 7 5 5 5 5 4 5 6 6
16 19 20 19 18 17 18 20 18 18 16 17 13 11 8 12 10 11 13 13 15 17 13 14 17 17 17 17 14 12 12 11 10 7 7 6 6 6 5 5 5 5 6 5
15 13 16 20 19 17 20 19 18 16 14 13 12 10 10 9 10 10 11 14 17 17 15 13 13 17 17 15 13 11 11 11 8 6 7 8 6 6 5 5 5 5 4 4
16 13 17 21 22 19 18 15 14 13 11 8 6 10 12 13 12 11 11 10 15 13 15 14 17 17 17 14 9 10 10 10 9 10 8 7 6 6 7 7 5 5 4 4
14 14 19 21 16 15 17 12 12 9 6 9 9 11 13 14 15 11 14 10 15 14 16 13 12 14 13 11 8 11 9 9 10 10 9 8 7 6 6 6 6 5 4 4
12 14 17 17 15 13 14 11 12 9 9 9 14 12 12 14 16 13 10 14 10 15 12 10 12 14 12 9 8 10 9 10 10 9 8 7 6 6 6 6 6 4 4 4
14 16 14 13 13 13 13 11 13 13 11 13 12 16 12 11 11 12 12 13 12 12 10 12 11 10 9 9 10 10 10 11 10 9 8 7 7 6 6 6 6 5 5 5
14 14 13 11 12 14 11 13 14 13 12 12 13 17 16 12 11 10 13 12 15 13 11 11 10 8 7 10 10 10 11 10 10 9 9 8 7 8 7 6 6 5 5 3
14 13 13 12 14 11 12 13 13 13 14 13 14 14 14 11 12 13 13 12 11 13 12 9 9 7 8 10 11 11 10 10 9 9 9 8 8 8 7 6 6 5 5 5
13 8 6 10 8 8 9 11 10 10 10 11 9 10 12 12 13 13 15 15 14 16 13 11 12 9 10 11 12 13 12 11 10 10 9 9 9 8 7 6 5 5 5 5
7 5 6 7 7 9 8 12 13 11 11 11 12 12 15 16 15 15 13 12 14 15 13 11 10 11 12 13 13 11 11 11 10 10 9 9 8 7 7 6 5 5 5 6
Wind_Direction
267 270 275 277 278 273 268 267 259 276 279 287 292 307 322 318 312 251 190 186 190 186 178 176 175 175 174 172 168 168 173 177 177 178 180 186 187 195 201 211 210 214 231 236
275 269 262 267 266 264 262 262 270 273 278 280 284 313 314 324 325 274 214 192 191 190 181 179 179 176 174 173 169 170 175 177 174 177 183 186 190 189 199 208 216 229 237 251
275 277 288 271 250 255 260 263 263 268 293 328 311 323 327 323 311 308 250 199 210 196 184 183 181 174 173 172 167 174 175 173 173 179 185 187 190 184 196 207 219 229 258 248
273 278 254 256 6 286 283 289 288 285 296 324 318 325 309 25 352 343 312 215 191 176 208 195 179 174 171 170 171 176 175 173 174 179 188 185 187 187 191 215 233 241 254 246
247 241 267 282 265 262 291 293 36 348 316 315 317 317 265 14 354 335 328 273 196 169 180 187 189 175 175 170 172 175 177 171 174 179 186 182 188 190 201 218 227 238 247 248
237 240 258 87 88 33 314 239 15 345 336 333 329 307 328 344 337 338 330 285 186 199 159 180 182 182 177 173 171 175 171 171 172 177 184 181 181 186 187 221 237 255 229 247
226 246 265 289 23 313 245 50 5 6 347 336 328 316 315 316 332 342 324 306 221 170 177 183 174 179 179 170 174 167 165 170 166 171 180 173 165 170 197 209 251 225 252 263
232 251 255 38 228 247 51 52 11 348 340 334 327 318 314 313 328 338 323 300 210 184 175 180 172 177 176 172 166 159 160 160 161 166 175 161 166 176 194 207 218 237 256 260
236 235 99 60 71 116 69 10 346 333 329 321 320 320 316 310 329 338 307 264 214 186 165 167 171 177 174 162 155 156 156 154 161 164 165 161 167 174 192 199 246 245 261 278
273 252 234 286 279 206 311 321 320 313 315 313 312 315 312 314 328 328 283 255 206 177 165 165 173 179 170 153 158 152 152 157 159 166 162 167 171 182 214 203 234 266 268 319
259 264 293 274 269 239 309 305 307 310 306 304 310 307 306 305 319 318 267 237 212 167 175 167 171 171 155 156 155 151 150 157 162 160 176 162 196 182 234 53 8 328 1 6
260 279 299 283 298 296 295 296 302 301 301 302 303 302 298 293 319 296 245 216 198 183 177 165 166 158 159 157 155 151 154 161 167 157 166 175 172 137 54 41 31 13 33 3
266 269 268 277 274 278 285 287 292 295 293 293 294 297 279 281 286 269 237 207 193 184 169 165 162 160 156 155 152 155 159 158 153 160 172 177 180 171 142 88 79 57 55 61
259 265 265 262 269 275 279 290 287 286 284 278 277 297 281 264 268 240 215 196 185 170 166 164 158 154 153 151 150 154 154 145 160 161 170 176 178 182 166 163 145 124 71 88
262 261 264 269 271 271 274 274 277 279 281 276 284 293 266 233 259 245 209 183 169 167 164 162 157 147 150 150 148 149 153 159 164 165 176 182 165 181 170 127 126 120 138 164
264 262 263 265 268 269 271 270 269 268 273 273 285 293 261 252 250 222 184 177 170 168 162 158 148 147 148 148 146 152 157 138 172 170 149 183 174 172 127 130 148 145 109 53
268 267 268 267 268 267 265 265 265 263 266 269 278 285 238 228 208 182 176 176 166 155 151 148 144 147 148 143 154 152 142 156 186 177 175 173 146 137 134 137 123 91 79 57
263 266 264 264 269 278 277 272 263 253 253 266 277 272 190 190 184 178 170 159 144 141 134 138 147 149 144 151 154 146 155 159 183 170 152 146 133 133 133 116 113 117 126 125
280 279 283 282 272 263 264 270 256 252 259 263 260 190 195 175 159 164 145 147 142 135 131 137 133 146 146 147 156 154 156 173 161 147 108 113 149 124 121 114 102 89 78 65
288 294 295 279 270 262 268 262 247 250 263 275 157 144 149 136 126 126 123 133 136 126 125 136 159 143 141 163 207 144 159 154 137 130 149 133 126 117 96 61 81 94 76 53
280 286 285 273 263 267 265 243 242 236 178 157 136 145 143 139 126 130 123 118 120 128 129 163 150 140 154 157 186 149 142 131 127 128 139 113 132 127 119 103 93 85 74 49
284 279 273 269 263 258 253 227 224 175 159 155 135 124 127 124 128 130 121 120 128 128 154 152 153 148 144 175 155 122 133 129 125 119 123 124 117 115 112 107 96 83 63 43
274 270 268 266 258 247 245 211 204 167 156 150 140 130 139 138 130 124 127 130 140 160 152 156 109 128 154 203 126 127 127 124 119 112 110 108 109 112 111 99 90 69 50 40
276 276 269 263 253 244 217 193 176 145 138 136 143 149 144 135 134 126 127 144 141 165 137 126 126 149 204 132 134 130 124 117 114 106 99 97 107 107 111 102 84 70 73 45
285 272 265 243 223 199 185 155 142 135 134 135 142 136 133 126 125 135 140 139 141 129 121 119 133 159 177 137 135 128 115 109 112 111 106 110 109 99 92 80 65 51 58 47
285 258 228 230 178 138 137 140 133 126 127 132 131 146 135 130 135 140 139 147 138 125 132 149 151 175 135 134 119 100 100 118 120 105 111 107 96 95 92 94 89 70 56 51
275 220 162 125 116 129 130 133 128 130 137 137 128 123 131 137 132 136 144 138 142 138 148 134 143 129 124 115 115 115 107 104 107 112 109 105 98 94 91 87 84 73 65 50